Вернуться в каталог

STARLINK-4338

АктивенСвязьSSO
NORAD 53055·PAYLOAD·🇺🇸 United States

Запущен Jul 11, 2022 с Vandenberg Space Force Base

Loading…

Ближайшие Пролёты (ближайшие 24 часа)

TLE

СвежийSource: CelesTrak SupGP

Эпоха: Sep 14, 2026, 20:26 UTC

1 53055C 22077N   26257.85187500 -.00075534  00000+0 -23425-2 0  2572
2 53055  97.2856  73.5705 0001978  98.1802  72.4378 15.33507004    17

Отслеживайте STARLINK-4338 в реальном времени с AllMySat

Download on the App Store